Погода Янги-Юган

Погода Янги-Юган : погода сейчас, прогноз погоды и архив. Всё, что Вы хотите узнать о погоде Янги-Юган!

Хотите узнать прогноз погоды Янги-Юган? Тогда Вам сюда: Погода Янги-Юган

Поиск расширенной информации на нашем сайте:

Другие новости

Новости СМИ2

Главная страница сайта

Новости сайта

03.07.2017

Напоминаем, что на нашем специализированном сайте Метеоцентр.Азия вы можете получить высокодетализированные автоматические прогнозы погоды по пунктам России, СНГ и мира в авиационном формате (включающие направление и скорость ветра, видимость, явления погоды, количество и форму облачности, нижнюю и верхнюю границу облачности).

Рекомендуем: Полиуретановые мешки кондитерские мешки.

Погода Янги-Юган - сегодня

Время (UTC), дата Ветер
(°,м/с) 
Видим.   Явления Облачность Т
(°С)
Тd
(°С)
f(%) Тe
(°С)
Pmin
(гПа)
dP
(гПа)
Po
(мм)
O2
(г/м3)
Тmin Tmax R s Состояние
почвы
18 17.09.17 070 (В) н/о    н/о 
+2.3 +1 91 +2  999.6  0.1  746  298           
21 17.09.17 060 (СВ) 20000 м    10/10 600 м 
[Sc]
+2.1 +0.8 91 +1  999.9  0.2  747  298           
00 18.09.17 060 (СВ) н/о    н/о 
+2 +0.6 90 +1  1001  1.1  748  299           
03 18.09.17 030 (СВ) 20000 м    10/10 300 м 
[St]
+2.7 +1.2 90 +3  1002.3  1.3  749  298  +1.9    0.0    влажная 
06 18.09.17 020 (С) 20000 м    10/10 300 м 
[St]
+4.3 +1.9 84 +4  1004  1.6  750  297           
09 18.09.17 010 (С) 20000 м  слаб. ливневой дождь  10/10 300 м кучево-дожд. 
[Cb cap]
+4.7 +2.4 85 +4  1006  1.6  751  297           
12 18.09.17 360 (С) н/о    н/о 
+4.6 +2 83 +4  1007.8  1.8  753  298           
15 18.09.17 340 (С) 20000 м    10/10 600 м 
[Cu Sc]
+3.5 +1.8 89 +3  1009.3  1.4  754  300    +6.3  0.3     
18 18.09.17 330 (СЗ) н/о    н/о 
+3.4 +2 91 +4  1010.3  754  300           
21 18.09.17 340 (С) 20000 м  слаб. морось  10/10 300 м 
[St]
+3.5 +2.2 91 +3  1011.2  0.9  755  300           
00 19.09.17 360 (С) н/о    н/о 
+3.9 +2.8 93 +5  1012.6  1.4  756  300           
03 19.09.17 030 (СВ) 10 км  слаб. морось  10/10 300 м 
[St]
+4.6 +3.5 93 +5  1014.3  1.7  757  300  +3.3    0.9    влажная 
06 19.09.17 050 (СВ) н/о    н/о 
+6 +4.4 89 +6  1016  1.8  759  298           
09 19.09.17 030 (СВ) 20000 м    10/10 600 м кучево-дожд. 
[Cb cap]
+7.4 +2.6 72 +7  1017.1  1.1  760  298           
12 19.09.17 040 (СВ) н/о    н/о 
+6.1 +1.7 73 +6  1018.5  1.4  761  300           
15 19.09.17 030 (СВ) 20000 м  в посл. час ливневой дождь  10/10 300 м кучево-дожд. 
[Cb cap]
+4.6 +2.6 87 +5  1019.3  0.8  761  301    +8.4  0.3     
18 19.09.17 050 (СВ) н/о    н/о 
+4.6 +3.2 91 +5  1019.6  0.3  761  301           
21 19.09.17 050 (СВ) 20000 м    10/10 600 м 
[Sc]
+4.7 +3.5 92 +6  1019.8  0.2  762  301           
00 20.09.17 050 (СВ) н/о    н/о 
+4.5 +3.3 92 +4  1019.8  762  301           
03 20.09.17 040 (СВ) 10 км  дымка  10/10 300 м 
[St]
+3.6 +2.5 92 +4  1020.5  0.7  762  303  +3.5    0.3    влажная 
06 20.09.17 040 (СВ) 20000 м    6/6 600 м 
[Cu Sc]
+5.3 +2 79 +5  1021.2  0.8  763  301  +3.4         
09 20.09.17 040 (СВ) 20000 м    8/8 600 м 
[Cu Sc]
+4.6 +1.5 80 +3  1021.5  0.3  763  302           
12 20.09.17 030 (СВ) 20000 м    10/10 600 м 
[Cu Sc]
+5.1 +1.8 79 +5  1022.2  0.7  763  302           
15 20.09.17 030 (СВ) 20000 м    10/10 600 м 
[Cu Sc]
+2.7 +0.8 87 +2  1023.4  1.2  764  305    +6.5       
18 20.09.17 020 (С) 20000 м    10/10 600 м 
[Sc]
+1.9 +0.3 89 +1  1024.2  1.2  765  306           
Время (UTC), дата Ветер
(°,м/с) 
Видим.   Явления Облачность Т
(°С)
Тd
(°С)
f(%) Тe
(°С)
Pmin
(гПа)
dP
(гПа)
Po
(мм)
O2
(г/м3)
Тmin Tmax R s Состояние
почвы

Для получения пояснительной информации подведите курсор к названию столбца.

ПОГОДА Янги-Юган - архив

Всё, что Вы хотите узнать о погоде Янги-Юган - удобно и подробно!

Выберите нужную дату (начиная с 1 января 2015* года) и нажмите кнопку "Найти".
Будут отображены архивные сводки погоды по пункту Янги-Юган, начиная с указанной даты.


Отображать данные в формате CSV (для использования в таблицах Excel)


Внимание! Наш архив погоды предназначен исключительно для личного некоммерческого использования в познавательных целях. Если Вам необходимы официальные справки о состоянии погоды (для производственных, юридических, коммерческих и т.п. целей), обращайтесь в органы Росгидромета.

*Примечание: данная дата относится к архиву по метеостанциям СССР (Россия, СНГ, Балтия).
Архив по метеостанциям Зарубежной Европы и Азии (кроме Китая) хранится 10 дней, по другим регионам земного шара (Китай, Африка, Америка, Австралия, Океания) - 1 день.

Янги-Юган - район местоположения метеостанции


Название, широта, долгота, высота метеостанции:
Янги-Юган 66.1°ш. 68.7°д. 40 м над ур. моря [Российская Федерация]

Дополнительная информация

В oтличие oт бoльшинства пoгoдных сайтoв мы публикуем пoдрoбную метеoинфoрмацию в детальнoм прoфессиoнальнoм фoрмате.

Характеристики температуры и влажнoсти вoздуха измеряются на высoте 2 м в тени вдали oт зданий и деревьев.
Скoрoсть ветра измеряется на высoте 10 м (на урoвне рoста челoвека скoрoсть ветра ниже в 1.5-2 раза). Если метеoстанция нахoдится в гoрoде или в лесу, тo скoрoсть ветра занижена на 2-4 м/с пo сравнению с oткрытым местoм. Скoрoсть ветра над акватoриями крупных рек и oзёр, а также на вершинах хoлмoв на 2-5 м/с выше, чем в oбычных услoвиях.
Атмoсфернoе давление в разных тoчках местнoсти мoжет значительнo oтличаться oт давления на метеoстанции, в зависимoсти oт услoвий рельефа (при пoдъёме на 10 м давление пoнижается примернo на 1 мм рт.ст.).